| time (UTC) | temp F | wind direction | speed MPH | gust MPH | rain 1hr in | rain 24hr in | rain mn in | humidity % | barometer mb |
| 20260904133046 | 93 | 158 | 6.0 | 7.0 | 0.04 | 2.77 | 0.00 | 37 | 1018.1 |
| 20260904132548 | 93 | 158 | 7.0 | 12.0 | 0.04 | 2.77 | 0.00 | 38 | 1018.1 |
| 20260904132048 | 93 | 113 | 9.0 | 12.0 | 0.06 | 2.77 | 0.00 | 38 | 1018.3 |
| 20260904131547 | 92 | 113 | 9.0 | 12.0 | 0.04 | 2.75 | 0.00 | 38 | 1018.3 |
| 20260904131047 | 92 | 158 | 9.0 | 11.0 | 0.04 | 2.75 | 0.00 | 36 | 1018.3 |
| 20260904130547 | 92 | 113 | 6.0 | 11.0 | 0.04 | 2.75 | 0.00 | 38 | 1018.4 |
| 20260904130047 | 92 | 158 | 6.0 | 12.0 | 0.06 | 2.75 | 0.00 | 38 | 1018.4 |
| 20260904125547 | 92 | 180 | 10.0 | 12.0 | 0.10 | 2.75 | 0.00 | 36 | 1018.5 |
| 20260904124547 | 92 | 158 | 10.0 | 14.0 | 0.28 | 2.75 | 0.00 | 38 | 1018.7 |
| 20260904124047 | 93 | 180 | 9.0 | 12.0 | 0.55 | 2.75 | 0.00 | 38 | 1018.9 |
| 20260904123548 | 93 | 135 | 8.0 | 9.0 | 0.59 | 2.73 | 0.00 | 38 | 1018.9 |
| 20260904123047 | 93 | 135 | 6.0 | 8.0 | 0.59 | 2.73 | 0.00 | 38 | 1018.8 |
| 20260904122547 | 93 | 135 | 7.0 | 10.0 | 0.57 | 2.71 | 0.00 | 38 | 1018.8 |
| 20260904122047 | 93 | 135 | 8.0 | 12.0 | 0.89 | 2.71 | 0.00 | 36 | 1019.1 |
| 20260904121547 | 94 | 180 | 8.0 | 12.0 | 0.98 | 2.71 | 0.00 | 38 | 1019.1 |
| 20260904121047 | 94 | 158 | 9.0 | 13.0 | 0.98 | 2.71 | 0.00 | 37 | 1019.1 |
| 20260904120547 | 94 | 158 | 10.0 | 13.0 | 1.00 | 2.71 | 0.00 | 38 | 1019.1 |
| 20260904120047 | 95 | 135 | 7.0 | 12.0 | 0.96 | 2.65 | 0.00 | 36 | 1019.2 |
| 20260904115548 | 95 | 135 | 6.0 | 10.0 | 1.12 | 2.65 | 0.00 | 38 | 1019.4 |
| 20260904114548 | 95 | 158 | 4.0 | 6.0 | 0.94 | 2.22 | 0.00 | 38 | 1019.6 |
| 20260904113548 | 95 | 158 | 7.0 | 8.0 | 1.02 | 2.14 | 0.00 | 37 | 1019.7 |
| 20260904113048 | 95 | 158 | 6.0 | 8.0 | 1.02 | 2.16 | 0.00 | 38 | 1019.8 |
| 20260904112548 | 95 | 158 | 7.0 | 12.0 | 0.82 | 1.96 | 0.00 | 39 | 1019.8 |
| 20260904112048 | 95 | 158 | 11.0 | 14.0 | 0.85 | 1.84 | 0.00 | 39 | 1019.9 |
| 20260904111548 | 95 | 113 | 9.0 | 14.0 | 0.84 | 1.75 | 0.00 | 39 | 1020.0 |
| 20260904111048 | 95 | 158 | 6.0 | 9.0 | 0.82 | 1.73 | 0.00 | 41 | 1020.0 |
| 20260904110548 | 93 | 158 | 7.0 | 11.0 | 0.84 | 1.73 | 0.00 | 41 | 1020.1 |
| 20260904110048 | 93 | 158 | 9.0 | 15.0 | 0.75 | 1.55 | 0.00 | 41 | 1020.1 |
| 20260904105048 | 92 | 158 | 6.0 | 12.0 | 0.53 | 1.30 | 0.00 | 41 | 1020.2 |
| 20260904104548 | 91 | 158 | 9.0 | 12.0 | 0.49 | 1.26 | 0.00 | 43 | 1020.2 |
| 20260904104049 | 91 | 158 | 7.0 | 12.0 | 0.55 | 1.22 | 0.00 | 44 | 1020.2 |
| 20260904103549 | 89 | 158 | 6.0 | 7.0 | 0.51 | 1.14 | 0.00 | 44 | 1020.3 |
| 20260904103050 | 88 | 158 | 6.0 | 9.0 | 0.51 | 1.20 | 0.00 | 45 | 1020.2 |
| 20260904102549 | 88 | 135 | 6.0 | 9.0 | 0.35 | 1.04 | 0.00 | 45 | 1020.3 |
| 20260904102049 | 88 | 158 | 6.0 | 8.0 | 0.43 | 1.04 | 0.00 | 45 | 1020.6 |
| 20260904101549 | 87 | 135 | 7.0 | 9.0 | 0.41 | 0.98 | 0.00 | 46 | 1020.4 |
| 20260904101049 | 87 | 135 | 8.0 | 11.0 | 0.41 | 0.96 | 0.00 | 46 | 1020.4 |
| 20260904100049 | 86 | 158 | 6.0 | 9.0 | 0.45 | 0.85 | 0.00 | 46 | 1020.4 |
| 20260904095050 | 86 | 135 | 4.0 | 7.0 | 0.49 | 0.84 | 0.00 | 47 | 1020.6 |
| 20260904094049 | 85 | 158 | 5.0 | 7.0 | 0.39 | 0.73 | 0.00 | 48 | 1020.6 |
| 20260904093549 | 85 | 135 | 5.0 | 5.0 | 0.35 | 0.69 | 0.00 | 48 | 1020.8 |
| 20260904093049 | 85 | 158 | 5.0 | 7.0 | 0.35 | 0.73 | 0.00 | 49 | 1020.6 |
| 20260904092549 | 85 | 135 | 4.0 | 7.0 | 0.26 | 0.65 | 0.00 | 49 | 1020.7 |
| 20260904092049 | 85 | 158 | 5.0 | 8.0 | 0.22 | 0.65 | 0.00 | 50 | 1020.7 |
| 20260904091550 | 84 | 113 | 6.0 | 8.0 | 0.20 | 0.59 | 0.00 | 50 | 1020.9 |
| 20260904091050 | 84 | 135 | 4.0 | 6.0 | 0.12 | 0.51 | 0.00 | 51 | 1020.9 |
| 20260904090049 | 84 | 135 | 6.0 | 8.0 | 0.08 | 0.45 | 0.00 | 49 | 1020.9 |
| 20260904085050 | 84 | 135 | 3.0 | 3.0 | 0.04 | 0.39 | 0.00 | 52 | 1021.1 |
| 20260904084551 | 84 | 135 | 4.0 | 4.0 | 0.04 | 0.39 | 0.00 | 53 | 1021.2 |
| 20260904083050 | 83 | 135 | 3.0 | 5.0 | 0.06 | 0.51 | 0.00 | 55 | 1021.1 |
| 20260904082550 | 83 | 158 | 0.0 | 5.0 | 0.06 | 0.51 | 0.00 | 56 | 1021.3 |
| 20260904082050 | 82 | 158 | 0.0 | 0.0 | 0.08 | 0.51 | 0.00 | 58 | 1021.3 |
| 20260904081550 | 82 | 158 | 0.0 | 2.0 | 0.08 | 0.51 | 0.00 | 58 | 1021.2 |
| 20260904081050 | 82 | 135 | 1.0 | 4.0 | 0.06 | 0.49 | 0.00 | 58 | 1021.0 |
| 20260904080551 | 81 | 135 | 1.0 | 4.0 | 0.10 | 0.49 | 0.00 | 62 | 1021.1 |
| 20260904075550 | 80 | 158 | 1.0 | 4.0 | 0.12 | 0.49 | 0.00 | 65 | 1021.2 |
| 20260904075050 | 78 | 158 | 1.0 | 2.0 | 0.10 | 0.47 | 0.00 | 68 | 1021.2 |
| 20260904074552 | 77 | 158 | 3.0 | 5.0 | 0.08 | 0.45 | 0.00 | 69 | 1021.2 |
| 20260904074050 | 76 | 158 | 3.0 | 5.0 | 0.08 | 0.45 | 0.00 | 67 | 1021.3 |
| 20260904073550 | 75 | 158 | 1.0 | 3.0 | 0.12 | 0.45 | 0.00 | 69 | 1021.4 |
| 20260904073051 | 74 | 158 | 0.0 | 0.0 | 0.12 | 0.51 | 0.00 | 71 | 1021.3 |
| 20260904072551 | 74 | 158 | 0.0 | 3.0 | 0.10 | 0.49 | 0.00 | 73 | 1021.3 |
| 20260904072051 | 72 | 158 | 1.0 | 3.0 | 0.12 | 0.49 | 0.00 | 73 | 1021.3 |
| 20260904071551 | 72 | 135 | 0.0 | 0.0 | 0.12 | 0.49 | 0.00 | 74 | 1021.1 |
| 20260904071053 | 71 | 135 | 0.0 | 0.0 | 0.08 | 0.45 | 0.00 | 76 | 1021.1 |
| 20260904070552 | 70 | 135 | 0.0 | 0.0 | 0.08 | 0.45 | 0.00 | 79 | 1021.2 |
| 20260904070051 | 70 | 158 | 0.0 | 0.0 | 0.08 | 0.43 | 0.00 | 80 | 1021.2 |
| 20260904065551 | 69 | 158 | 0.0 | 0.0 | 0.08 | 0.43 | 0.00 | 80 | 1021.3 |
| 20260904065051 | 68 | 158 | 1.0 | 3.0 | 0.08 | 0.43 | 0.00 | 82 | 1021.2 |
| 20260904064052 | 67 | 248 | 0.0 | 0.0 | 0.08 | 0.43 | 0.00 | 84 | 1021.2 |
| 20260904063551 | 66 | 248 | 0.0 | 0.0 | 0.04 | 0.49 | 0.00 | 84 | 1021.3 |
| 20260904063051 | 66 | 248 | 0.0 | 0.0 | 0.04 | 0.49 | 0.00 | 84 | 1021.3 |
| 20260904062551 | 65 | 248 | 0.0 | 0.0 | 0.02 | 0.47 | 0.00 | 86 | 1021.4 |
| 20260904062052 | 65 | 248 | 0.0 | 0.0 | 0.02 | 0.47 | 0.00 | 87 | 1021.4 |
| 20260904061552 | 64 | 248 | 0.0 | 0.0 | 0.02 | 0.47 | 0.00 | 87 | 1021.3 |
| 20260904061052 | 64 | 248 | 0.0 | 0.0 | 0.02 | 0.47 | 0.00 | 87 | 1021.3 |
| 20260904060552 | 64 | 248 | 0.0 | 0.0 | 0.02 | 0.47 | 0.00 | 87 | 1021.4 |
| 20260904060052 | 63 | 23 | 0.0 | 0.0 | 0.00 | 0.45 | 0.00 | 87 | 1021.4 |
| 20260904055554 | 63 | 23 | 0.0 | 0.0 | 0.00 | 0.45 | 0.00 | 87 | 1021.5 |
| 20260904055052 | 63 | 23 | 0.0 | 0.0 | 0.00 | 0.45 | 0.00 | 87 | 1021.7 |
| 20260904054552 | 62 | 23 | 0.0 | 0.0 | 0.00 | 0.45 | 0.00 | 87 | 1021.5 |
| 20260904054053 | 62 | 23 | 0.0 | 0.0 | 0.02 | 0.45 | 0.00 | 87 | 1021.5 |
| 20260904053552 | 62 | 23 | 0.0 | 0.0 | 0.02 | 0.49 | 0.00 | 87 | 1021.4 |
| 20260904053053 | 62 | 23 | 0.0 | 0.0 | 0.02 | 0.49 | 0.00 | 87 | 1021.3 |
| 20260904052552 | 62 | 23 | 0.0 | 0.0 | 0.02 | 0.49 | 0.00 | 87 | 1021.5 |
| 20260904052053 | 62 | 23 | 0.0 | 0.0 | 0.04 | 0.49 | 0.00 | 87 | 1021.6 |
| 20260904051552 | 62 | 23 | 0.0 | 0.0 | 0.04 | 0.49 | 0.00 | 87 | 1021.5 |
| 20260904051052 | 62 | 23 | 0.0 | 0.0 | 0.04 | 0.49 | 0.00 | 87 | 1021.4 |
| 20260904050552 | 61 | 23 | 0.0 | 0.0 | 0.04 | 0.49 | 0.00 | 87 | 1021.3 |
| 20260904045552 | 61 | 23 | 0.0 | 0.0 | 0.04 | 0.49 | 0.00 | 87 | 1021.5 |
| 20260904044553 | 61 | 23 | 0.0 | 0.0 | 0.02 | 0.47 | 0.00 | 87 | 1021.3 |
| 20260904044052 | 61 | 23 | 0.0 | 0.0 | 0.02 | 0.47 | 0.00 | 86 | 1021.2 |
| 20260904043553 | 61 | 23 | 0.0 | 0.0 | 0.02 | 0.47 | 0.00 | 86 | 1021.0 |
| 20260904043052 | 61 | 23 | 0.0 | 0.0 | 0.02 | 0.47 | 0.00 | 86 | 1021.0 |
| 20260904042553 | 61 | 23 | 0.0 | 0.0 | 0.00 | 0.45 | 0.00 | 86 | 1021.1 |
| 20260904042053 | 61 | 23 | 0.0 | 0.0 | 0.00 | 0.45 | 0.00 | 86 | 1021.0 |
| 20260904040553 | 61 | 23 | 0.0 | 0.0 | 0.00 | 0.45 | 0.00 | 85 | 1021.1 |
| 20260904040055 | 61 | 23 | 0.0 | 0.0 | 0.00 | 0.45 | 0.00 | 85 | 1021.1 |
| 20260904035553 | 61 | 23 | 0.0 | 0.0 | 0.00 | 0.45 | 0.00 | 85 | 1021.0 |
| 20260904035053 | 62 | 23 | 0.0 | 0.0 | 0.00 | 0.45 | 0.00 | 85 | 1021.2 |
| 20260904034553 | 62 | 23 | 0.0 | 0.0 | 0.00 | 0.45 | 0.00 | 85 | 1021.3 |
| 20260904034054 | 62 | 23 | 0.0 | 0.0 | 0.00 | 0.45 | 0.00 | 85 | 1021.3 |
| 20260904032553 | 63 | 23 | 0.0 | 0.0 | 0.00 | 0.53 | 0.00 | 85 | 1021.3 |
| 20260904032053 | 63 | 23 | 0.0 | 0.0 | 0.00 | 0.53 | 0.00 | 85 | 1021.4 |
| 20260904031053 | 63 | 23 | 0.0 | 0.0 | 0.00 | 0.53 | 0.00 | 85 | 1021.2 |
| 20260904030554 | 64 | 23 | 0.0 | 0.0 | 0.00 | 0.53 | 0.00 | 85 | 1021.3 |
| 20260904030056 | 64 | 23 | 0.0 | 0.0 | 0.00 | 0.53 | 0.00 | 85 | 1021.4 |
| 20260904025554 | 64 | 23 | 0.0 | 0.0 | 0.00 | 0.53 | 0.00 | 85 | 1021.3 |
| 20260904025054 | 64 | 23 | 0.0 | 0.0 | 0.00 | 0.53 | 0.00 | 85 | 1021.5 |
| 20260904024556 | 64 | 23 | 0.0 | 0.0 | 0.00 | 0.53 | 0.00 | 85 | 1021.4 |
| 20260904024054 | 64 | 23 | 0.0 | 0.0 | 0.00 | 0.53 | 0.00 | 85 | 1021.4 |
| 20260904023554 | 64 | 23 | 0.0 | 0.0 | 0.00 | 0.53 | 0.00 | 85 | 1021.5 |
| 20260904023055 | 64 | 23 | 0.0 | 0.0 | 0.00 | 0.53 | 0.00 | 85 | 1021.4 |
| 20260904022554 | 64 | 23 | 0.0 | 0.0 | 0.00 | 0.53 | 0.00 | 85 | 1021.4 |
| 20260904022054 | 64 | 23 | 0.0 | 0.0 | 0.00 | 0.53 | 0.00 | 86 | 1021.4 |
| 20260904021554 | 64 | 23 | 0.0 | 0.0 | 0.00 | 0.53 | 0.00 | 86 | 1021.5 |
| 20260904021054 | 64 | 23 | 0.0 | 0.0 | 0.00 | 0.53 | 0.00 | 86 | 1021.5 |
| 20260904020554 | 64 | 23 | 0.0 | 0.0 | 0.00 | 0.53 | 0.00 | 85 | 1021.5 |
| 20260904020055 | 64 | 23 | 0.0 | 0.0 | 0.00 | 0.53 | 0.00 | 85 | 1021.4 |
| 20260904015554 | 64 | 23 | 0.0 | 0.0 | 0.00 | 0.53 | 0.00 | 85 | 1021.4 |
| 20260904015054 | 64 | 23 | 0.0 | 0.0 | 0.00 | 0.53 | 0.00 | 85 | 1021.4 |
| 20260904014055 | 64 | 23 | 0.0 | 0.0 | 0.00 | 0.53 | 0.00 | 85 | 1021.4 |
| 20260904013055 | 64 | 23 | 0.0 | 0.0 | 0.00 | 0.53 | 0.00 | 85 | 1021.3 |
| 20260904012056 | 64 | 23 | 0.0 | 0.0 | 0.00 | 0.53 | 0.00 | 84 | 1021.1 |
| 20260904011555 | 64 | 23 | 0.0 | 0.0 | 0.00 | 0.53 | 0.00 | 84 | 1021.1 |
| 20260904011055 | 64 | 23 | 0.0 | 0.0 | 0.00 | 0.53 | 0.00 | 84 | 1021.1 |
| 20260904010555 | 64 | 23 | 0.0 | 0.0 | 0.00 | 0.53 | 0.00 | 83 | 1021.1 |
| 20260904010057 | 64 | 23 | 0.0 | 0.0 | 0.00 | 0.53 | 0.00 | 83 | 1021.1 |
| 20260904005556 | 64 | 23 | 0.0 | 0.0 | 0.00 | 0.53 | 0.00 | 83 | 1021.0 |
| 20260904005055 | 64 | 23 | 0.0 | 0.0 | 0.00 | 0.53 | 0.00 | 83 | 1021.0 |
| 20260904004555 | 64 | 23 | 0.0 | 0.0 | 0.00 | 0.53 | 0.00 | 83 | 1021.1 |
| 20260904004055 | 64 | 23 | 0.0 | 0.0 | 0.00 | 0.53 | 0.00 | 83 | 1021.1 |
| 20260904003555 | 64 | 23 | 0.0 | 0.0 | 0.00 | 0.53 | 0.00 | 83 | 1021.1 |
| 20260904003056 | 64 | 23 | 0.0 | 0.0 | 0.00 | 0.61 | 0.00 | 83 | 1021.3 |
| 20260904002556 | 64 | 23 | 0.0 | 0.0 | 0.00 | 0.61 | 0.00 | 83 | 1021.2 |
| 20260904002055 | 64 | 23 | 0.0 | 0.0 | 0.00 | 0.61 | 0.00 | 83 | 1021.2 |
| 20260904001555 | 64 | 23 | 0.0 | 0.0 | 0.00 | 0.61 | 0.00 | 83 | 1021.3 |
| 20260904001055 | 64 | 23 | 0.0 | 0.0 | 0.00 | 0.61 | 0.00 | 83 | 1021.4 |
| 20260904000556 | 64 | 23 | 0.0 | 0.0 | 0.00 | 0.61 | 0.00 | 83 | 1021.3 |
| 20260904000055 | 64 | 23 | 0.0 | 0.0 | 0.00 | 0.61 | 0.00 | 83 | 1021.3 |
| 20260903235556 | 64 | 23 | 0.0 | 0.0 | 0.00 | 0.61 | 0.00 | 83 | 1021.3 |
| 20260903235056 | 64 | 23 | 0.0 | 0.0 | 0.00 | 0.61 | 0.00 | 83 | 1021.3 |
| 20260903234556 | 64 | 23 | 0.0 | 0.0 | 0.00 | 0.61 | 0.00 | 83 | 1021.2 |
| 20260903234056 | 64 | 23 | 0.0 | 0.0 | 0.00 | 0.61 | 0.00 | 82 | 1021.2 |
| 20260903233556 | 64 | 23 | 0.0 | 0.0 | 0.00 | 0.61 | 0.00 | 82 | 1021.2 |
| 20260903232556 | 64 | 23 | 0.0 | 0.0 | 0.00 | 0.77 | 0.00 | 82 | 1021.1 |
| 20260903232056 | 64 | 23 | 0.0 | 0.0 | 0.00 | 0.77 | 0.00 | 82 | 1021.2 |
| 20260903231556 | 64 | 23 | 0.0 | 0.0 | 0.00 | 0.77 | 0.00 | 82 | 1021.2 |
| 20260903231056 | 64 | 23 | 0.0 | 0.0 | 0.00 | 0.77 | 0.00 | 82 | 1021.2 |
| 20260903230556 | 64 | 23 | 0.0 | 0.0 | 0.00 | 0.77 | 0.00 | 82 | 1021.2 |
| 20260903230056 | 64 | 23 | 0.0 | 0.0 | 0.00 | 0.77 | 0.00 | 82 | 1021.1 |
| 20260903225556 | 64 | 23 | 0.0 | 0.0 | 0.00 | 0.77 | 0.00 | 81 | 1021.0 |
| 20260903225056 | 64 | 23 | 0.0 | 0.0 | 0.00 | 0.77 | 0.00 | 81 | 1021.0 |
| 20260903224557 | 64 | 23 | 0.0 | 0.0 | 0.00 | 0.77 | 0.00 | 81 | 1021.1 |
| 20260903224057 | 64 | 23 | 0.0 | 0.0 | 0.00 | 0.77 | 0.00 | 81 | 1021.0 |
| 20260903223557 | 64 | 23 | 0.0 | 0.0 | 0.00 | 0.77 | 0.00 | 81 | 1021.0 |
| 20260903223057 | 64 | 23 | 0.0 | 0.0 | 0.00 | 0.98 | 0.00 | 80 | 1020.9 |
| 20260903222557 | 64 | 23 | 0.0 | 0.0 | 0.00 | 0.98 | 0.00 | 80 | 1020.9 |
| 20260903222057 | 64 | 23 | 0.0 | 0.0 | 0.00 | 0.98 | 0.00 | 80 | 1020.8 |
| 20260903221557 | 64 | 23 | 0.0 | 0.0 | 0.00 | 0.98 | 0.00 | 80 | 1020.8 |
| 20260903221058 | 64 | 23 | 0.0 | 0.0 | 0.00 | 0.98 | 0.00 | 80 | 1020.9 |
| 20260903220559 | 64 | 23 | 0.0 | 0.0 | 0.00 | 0.98 | 0.00 | 80 | 1020.6 |
| 20260903220057 | 64 | 23 | 0.0 | 0.0 | 0.00 | 0.98 | 0.00 | 80 | 1020.6 |
| 20260903215557 | 64 | 23 | 0.0 | 0.0 | 0.00 | 0.98 | 0.00 | 80 | 1020.8 |
| 20260903215057 | 65 | 23 | 0.0 | 0.0 | 0.00 | 0.98 | 0.00 | 79 | 1020.7 |
| 20260903214557 | 65 | 23 | 0.0 | 0.0 | 0.00 | 0.98 | 0.00 | 79 | 1020.9 |
| 20260903214057 | 65 | 23 | 0.0 | 0.0 | 0.00 | 0.98 | 0.00 | 79 | 1020.9 |
| 20260903213557 | 65 | 23 | 0.0 | 0.0 | 0.00 | 0.98 | 0.00 | 79 | 1020.8 |
| 20260903213057 | 65 | 23 | 0.0 | 0.0 | 0.00 | 1.37 | 0.00 | 79 | 1020.7 |
| 20260903212558 | 65 | 23 | 0.0 | 0.0 | 0.00 | 1.37 | 0.00 | 79 | 1020.8 |
| 20260903212059 | 65 | 23 | 0.0 | 0.0 | 0.00 | 1.37 | 0.00 | 79 | 1020.7 |
| 20260903211558 | 65 | 23 | 0.0 | 0.0 | 0.00 | 1.37 | 0.00 | 79 | 1020.7 |
| 20260903211058 | 65 | 23 | 0.0 | 0.0 | 0.00 | 1.37 | 0.00 | 79 | 1020.5 |
| 20260903210600 | 64 | 45 | 0.0 | 0.0 | 0.00 | 1.37 | 0.00 | 79 | 1020.6 |
| 20260903210058 | 64 | 45 | 0.0 | 0.0 | 0.00 | 1.37 | 0.00 | 79 | 1020.5 |
| 20260903205558 | 64 | 45 | 0.0 | 0.0 | 0.00 | 1.37 | 0.00 | 79 | 1020.6 |
| 20260903205059 | 64 | 90 | 0.0 | 0.0 | 0.00 | 1.37 | 0.00 | 78 | 1020.3 |
| 20260903204558 | 64 | 90 | 0.0 | 0.0 | 0.00 | 1.37 | 0.00 | 78 | 1020.4 |
| 20260903204058 | 64 | 90 | 0.0 | 0.0 | 0.00 | 1.37 | 0.00 | 78 | 1020.3 |
| 20260903202058 | 64 | 90 | 0.0 | 0.0 | 0.00 | 1.59 | 0.00 | 77 | 1020.2 |
| 20260903201558 | 64 | 135 | 0.0 | 0.0 | 0.00 | 1.59 | 0.00 | 77 | 1020.1 |
| 20260903201058 | 64 | 135 | 0.0 | 0.0 | 0.00 | 1.59 | 0.00 | 77 | 1020.0 |
| 20260903200059 | 64 | 135 | 0.0 | 0.0 | 0.00 | 1.59 | 0.00 | 76 | 1020.0 |
| 20260903195558 | 64 | 135 | 0.0 | 0.0 | 0.00 | 1.59 | 0.00 | 75 | 1019.8 |
| 20260903195059 | 64 | 135 | 0.0 | 0.0 | 0.00 | 1.59 | 0.00 | 75 | 1020.1 |
| 20260903194558 | 64 | 135 | 0.0 | 0.0 | 0.00 | 1.59 | 0.00 | 74 | 1020.0 |
| 20260903194058 | 64 | 135 | 0.0 | 0.0 | 0.00 | 1.59 | 0.00 | 74 | 1020.1 |
| 20260903193559 | 64 | 135 | 0.0 | 0.0 | 0.00 | 1.59 | 0.00 | 74 | 1020.0 |
| 20260903193059 | 65 | 135 | 0.0 | 0.0 | 0.00 | 1.59 | 0.00 | 74 | 1019.8 |
| 20260903192559 | 65 | 135 | 0.0 | 0.0 | 0.00 | 1.59 | 0.00 | 73 | 1020.0 |
| 20260903192059 | 65 | 135 | 0.0 | 0.0 | 0.00 | 1.59 | 0.00 | 73 | 1019.9 |
| 20260903191059 | 65 | 135 | 0.0 | 0.0 | 0.00 | 1.59 | 0.00 | 72 | 1019.7 |
| 20260903190059 | 66 | 135 | 0.0 | 0.0 | 0.00 | 1.59 | 0.00 | 71 | 1019.7 |
| 20260903185559 | 66 | 135 | 0.0 | 0.0 | 0.00 | 1.59 | 0.00 | 71 | 1019.7 |
| 20260903185059 | 67 | 135 | 0.0 | 0.0 | 0.00 | 1.59 | 0.00 | 71 | 1019.5 |
| 20260903184559 | 67 | 135 | 0.0 | 0.0 | 0.00 | 1.59 | 0.00 | 70 | 1019.4 |
| 20260903184059 | 67 | 135 | 0.0 | 0.0 | 0.00 | 1.59 | 0.00 | 69 | 1019.5 |
| 20260903183559 | 67 | 135 | 0.0 | 0.0 | 0.00 | 1.59 | 0.00 | 68 | 1019.4 |
| 20260903183059 | 68 | 135 | 0.0 | 0.0 | 0.00 | 1.59 | 0.00 | 67 | 1019.6 |
| 20260903182600 | 68 | 135 | 0.0 | 0.0 | 0.00 | 1.59 | 0.00 | 66 | 1019.4 |
| 20260903181559 | 69 | 135 | 0.0 | 0.0 | 0.00 | 1.59 | 0.00 | 65 | 1019.5 |
| 20260903180100 | 70 | 135 | 0.0 | 0.0 | 0.00 | 1.59 | 0.00 | 64 | 1019.2 |
| 20260903175100 | 71 | 135 | 0.0 | 0.0 | 0.00 | 1.59 | 0.00 | 63 | 1019.3 |
| 20260903174601 | 72 | 135 | 0.0 | 0.0 | 0.00 | 1.59 | 0.00 | 62 | 1019.3 |
| 20260903174100 | 72 | 135 | 0.0 | 0.0 | 0.00 | 1.59 | 0.00 | 62 | 1019.3 |
| 20260903173600 | 73 | 135 | 0.0 | 0.0 | 0.00 | 1.59 | 0.00 | 61 | 1019.3 |
| 20260903173100 | 73 | 135 | 0.0 | 0.0 | 0.00 | 1.59 | 0.00 | 60 | 1019.4 |
| 20260903172100 | 74 | 135 | 0.0 | 0.0 | 0.00 | 1.59 | 0.00 | 59 | 1019.3 |
| 20260903171100 | 75 | 135 | 0.0 | 0.0 | 0.00 | 1.59 | 0.00 | 57 | 1019.1 |
| 20260903170603 | 76 | 135 | 0.0 | 0.0 | 0.00 | 1.59 | 0.00 | 56 | 1019.1 |
| 20260903165600 | 76 | 135 | 0.0 | 0.0 | 0.00 | 1.59 | 0.00 | 54 | 1019.3 |
| 20260903165101 | 77 | 135 | 0.0 | 0.0 | 0.00 | 1.59 | 0.00 | 53 | 1019.2 |
| 20260903164600 | 77 | 135 | 0.0 | 0.0 | 0.00 | 1.59 | 0.00 | 53 | 1019.3 |
| 20260903164101 | 78 | 135 | 0.0 | 0.0 | 0.00 | 1.59 | 0.00 | 52 | 1019.2 |
| 20260903162101 | 80 | 135 | 0.0 | 0.0 | 0.00 | 1.59 | 0.00 | 48 | 1019.1 |
| 20260903161601 | 81 | 135 | 0.0 | 0.0 | 0.00 | 1.59 | 0.00 | 48 | 1019.2 |
| 20260903161101 | 81 | 158 | 0.0 | 0.0 | 0.00 | 1.59 | 0.00 | 47 | 1019.2 |
| 20260903155601 | 82 | 135 | 0.0 | 0.0 | 0.00 | 1.59 | 0.00 | 46 | 1019.5 |
| 20260903155101 | 83 | 158 | 0.0 | 0.0 | 0.00 | 1.59 | 0.00 | 45 | 1019.3 |
| 20260903154601 | 83 | 158 | 0.0 | 0.0 | 0.00 | 1.59 | 0.00 | 45 | 1019.5 |
| 20260903154101 | 83 | 45 | 0.0 | 0.0 | 0.00 | 1.59 | 0.00 | 44 | 1019.4 |
| 20260903153601 | 83 | 45 | 0.0 | 0.0 | 0.00 | 1.59 | 0.00 | 43 | 1019.6 |
| 20260903153101 | 84 | 45 | 0.0 | 0.0 | 0.00 | 1.75 | 0.00 | 43 | 1019.6 |
| 20260903152601 | 84 | 135 | 1.0 | 3.0 | 0.00 | 1.75 | 0.00 | 43 | 1019.5 |
| 20260903152101 | 84 | 158 | 1.0 | 3.0 | 0.00 | 1.75 | 0.00 | 44 | 1019.6 |
| 20260903151601 | 84 | 68 | 0.0 | 0.0 | 0.00 | 1.75 | 0.00 | 43 | 1019.6 |
| 20260903151101 | 84 | 135 | 0.0 | 0.0 | 0.00 | 1.75 | 0.00 | 43 | 1019.5 |
| 20260903145602 | 86 | 45 | 0.0 | 0.0 | 0.00 | 1.75 | 0.00 | 42 | 1019.6 |
| 20260903145102 | 86 | 113 | 0.0 | 0.0 | 0.00 | 1.75 | 0.00 | 42 | 1019.5 |
| 20260903144602 | 87 | 135 | 0.0 | 0.0 | 0.00 | 1.75 | 0.00 | 42 | 1019.7 |
| 20260903144102 | 87 | 135 | 0.0 | 0.0 | 0.00 | 1.75 | 0.00 | 42 | 1019.4 |
| 20260903143102 | 88 | 113 | 0.0 | 0.0 | 0.00 | 2.06 | 0.00 | 41 | 1019.7 |
| 20260903142602 | 88 | 45 | 0.0 | 0.0 | 0.00 | 2.06 | 0.00 | 42 | 1019.6 |
| 20260903142105 | 88 | 45 | 0.0 | 0.0 | 0.00 | 2.06 | 0.00 | 41 | 1019.7 |
| 20260903141602 | 88 | 135 | 0.0 | 0.0 | 0.00 | 2.06 | 0.00 | 41 | 1019.9 |
| 20260903141102 | 88 | 135 | 0.0 | 0.0 | 0.00 | 2.06 | 0.00 | 42 | 1019.7 |
| 20260903135604 | 88 | 135 | 0.0 | 2.0 | 0.00 | 2.06 | 0.00 | 41 | 1020.0 |
| 20260903134602 | 88 | 68 | 0.0 | 0.0 | 0.00 | 2.06 | 0.00 | 41 | 1020.1 |
| 20260903134102 | 89 | 135 | 0.0 | 0.0 | 0.00 | 2.06 | 0.00 | 38 | 1020.0 |